Location: *
(2.5500°S, 65.9667°W)
Time: 03:43:55
(UTC+00:00)

DELTA-4 R/B - Pass Details

Date: 25 May 2022
Orbit: 448 x 34502 km, 13.4° (Epoch: 04 July)

Event Time Altitude Azimuth Distance (km) Brightness Sun altitude
Rises 22:37:04 0° 255° (WSW) 3,882 7.6 -4.7°
Reaches altitude 10° 22:38:41 10° 250° (WSW) 3,397 7.1 -5.1°
Maximum altitude 06:10:16 59° 66° (ENE) 27,456 10.6 -57.5°
Drops below altitude 10° 08:06:42 10° 71° (ENE) 10,690 9.7 -32.1°
Sets 08:11:56 0° 73° (ENE) 10,243 9.9 -30.9°
